Hourly Weather Rudolowice

Today, 21 April, Wednesday

Time Temperature Precipitation Wind Pressure Humidity
00:00 +7°C° 0 mm 1 mps 739 mmHg 83%
01:00 +6°C° 0 mm 1 mps 739 mmHg 84%
02:00 +5°C° 0 mm 2 mps 739 mmHg 85%
03:00 +5°C° 0 mm 2 mps 739 mmHg 86%
04:00 +4°C° 0 mm 2 mps 739 mmHg 87%
05:00 +4°C° 0 mm 2 mps 739 mmHg 88%
06:00 +6°C° 0 mm 2 mps 739 mmHg 83%
07:00 +7°C° 0 mm 2 mps 739 mmHg 79%
08:00 +9°C° 0 mm 2 mps 739 mmHg 74%
09:00 +10°C° 0.1 mm 3 mps 739 mmHg 68%
10:00 +12°C° 0.1 mm 4 mps 739 mmHg 61%
11:00 +13°C° 0.1 mm 4 mps 739 mmHg 55%
12:00 +14°C° 0.2 mm 5 mps 739 mmHg 54%
13:00 +14°C° 0.2 mm 5 mps 739 mmHg 53%
14:00 +15°C° 0 mm 5 mps 738 mmHg 53%
15:00 +14°C° 0.2 mm 5 mps 738 mmHg 56%
16:00 +14°C° 0.2 mm 5 mps 738 mmHg 59%
17:00 +14°C° 0.2 mm 4 mps 738 mmHg 62%
18:00 +12°C° 0.4 mm 4 mps 738 mmHg 69%
19:00 +11°C° 0.4 mm 4 mps 738 mmHg 76%
20:00 +9°C° 0.4 mm 3 mps 739 mmHg 82%
21:00 +9°C° 0 mm 3 mps 739 mmHg 84%
22:00 +8°C° 0 mm 3 mps 739 mmHg 86%
23:00 +7°C° 0 mm 3 mps 739 mmHg 87%

Tomorrow, 22 April, Thursday

Time Temperature Precipitation Wind Pressure Humidity
00:00 +7°C° 0 mm 3 mps 739 mmHg 88%
01:00 +7°C° 0 mm 3 mps 739 mmHg 88%
02:00 +7°C° 0 mm 3 mps 739 mmHg 88%
03:00 +7°C° 0 mm 3 mps 739 mmHg 90%
04:00 +7°C° 0 mm 3 mps 739 mmHg 91%
05:00 +6°C° 0 mm 4 mps 739 mmHg 92%
06:00 +7°C° 0.1 mm 4 mps 739 mmHg 90%
07:00 +7°C° 0.1 mm 5 mps 739 mmHg 88%
08:00 +8°C° 0.1 mm 5 mps 739 mmHg 86%
09:00 +9°C° 1.2 mm 5 mps 740 mmHg 84%
10:00 +9°C° 1.2 mm 5 mps 740 mmHg 83%
11:00 +9°C° 1.2 mm 5 mps 740 mmHg 81%
12:00 +9°C° 0.6 mm 5 mps 740 mmHg 82%
13:00 +8°C° 0.6 mm 5 mps 740 mmHg 84%
14:00 +8°C° 0.6 mm 5 mps 740 mmHg 85%
15:00 +7°C° 1.2 mm 5 mps 741 mmHg 84%
16:00 +6°C° 1.2 mm 5 mps 741 mmHg 83%
17:00 +5°C° 1.2 mm 4 mps 741 mmHg 82%
18:00 +4°C° 0.1 mm 4 mps 742 mmHg 84%
19:00 +4°C° 0.1 mm 3 mps 742 mmHg 87%
20:00 +3°C° 0.1 mm 3 mps 742 mmHg 89%
21:00 +2°C° 0 mm 3 mps 742 mmHg 89%
22:00 +2°C° 0 mm 3 mps 742 mmHg 89%
23:00 +2°C° 0 mm 3 mps 742 mmHg 89%

Day after tomorrow, 23 April, Friday

Time Temperature Precipitation Wind Pressure Humidity
00:00 +1°C° 0 mm 3 mps 742 mmHg 88%
01:00 0°C° 0 mm 3 mps 743 mmHg 88%
02:00 +1°C° 0 mm 2 mps 743 mmHg 88%
03:00 +1°C° 0 mm 2 mps 743 mmHg 89%
04:00 -1°C° 0 mm 2 mps 743 mmHg 89%
05:00 -1°C° 0 mm 2 mps 743 mmHg 90%
06:00 +1°C° 0 mm 3 mps 744 mmHg 86%
07:00 +1°C° 0 mm 4 mps 744 mmHg 83%
08:00 +3°C° 0 mm 4 mps 744 mmHg 79%
09:00 +4°C° 0.2 mm 4 mps 744 mmHg 70%
10:00 +6°C° 0.2 mm 5 mps 744 mmHg 61%
11:00 +7°C° 0.2 mm 5 mps 744 mmHg 51%
12:00 +7°C° 0.1 mm 5 mps 744 mmHg 51%
13:00 +7°C° 0.1 mm 6 mps 744 mmHg 50%
14:00 +8°C° 0.1 mm 6 mps 744 mmHg 49%
15:00 +7°C° 0.1 mm 6 mps 744 mmHg 52%
16:00 +7°C° 0.1 mm 6 mps 743 mmHg 55%
17:00 +7°C° 0.1 mm 6 mps 743 mmHg 59%
18:00 +5°C° 0.1 mm 6 mps 744 mmHg 65%
19:00 +3°C° 0.1 mm 6 mps 744 mmHg 72%
20:00 +2°C° 0.1 mm 6 mps 744 mmHg 79%
21:00 +1°C° 0.1 mm 5 mps 745 mmHg 82%
22:00 +1°C° 0.1 mm 4 mps 745 mmHg 86%
23:00 0°C° 0.1 mm 4 mps 746 mmHg 90%

24 April, Saturday

Time Temperature Precipitation Wind Pressure Humidity
00:00 0°C° 0 mm 3 mps 746 mmHg 91%
01:00 0°C° 0 mm 3 mps 746 mmHg 91%
02:00 -1°C° 0 mm 3 mps 746 mmHg 92%
03:00 -1°C° 0 mm 3 mps 746 mmHg 91%
04:00 -2°C° 0 mm 3 mps 746 mmHg 91%
05:00 -2°C° 0 mm 3 mps 746 mmHg 90%
06:00 -1°C° 0 mm 3 mps 746 mmHg 81%
07:00 0°C° 0 mm 4 mps 747 mmHg 73%
08:00 +3°C° 0 mm 4 mps 747 mmHg 64%
09:00 +3°C° 0 mm 5 mps 747 mmHg 57%
10:00 +5°C° 0 mm 5 mps 747 mmHg 49%
11:00 +7°C° 0 mm 5 mps 747 mmHg 42%
12:00 +7°C° 0 mm 5 mps 746 mmHg 42%
13:00 +8°C° 0 mm 5 mps 746 mmHg 43%
14:00 +8°C° 0 mm 5 mps 746 mmHg 44%
15:00 +8°C° 0 mm 5 mps 746 mmHg 46%
16:00 +8°C° 0 mm 5 mps 745 mmHg 48%
17:00 +8°C° 0 mm 5 mps 745 mmHg 51%
18:00 +7°C° 0 mm 4 mps 745 mmHg 59%
19:00 +5°C° 0 mm 3 mps 745 mmHg 67%
20:00 +5°C° 0 mm 2 mps 745 mmHg 75%
21:00 +4°C° 0 mm 2 mps 745 mmHg 79%
22:00 +4°C° 0 mm 2 mps 745 mmHg 82%
23:00 +3°C° 0 mm 3 mps 745 mmHg 85%

25 April, Sunday

Time Temperature Precipitation Wind Pressure Humidity
00:00 +3°C° 0.1 mm 3 mps 745 mmHg 87%
01:00 +3°C° 0.1 mm 3 mps 745 mmHg 89%
02:00 +3°C° 0.1 mm 3 mps 745 mmHg 91%
03:00 +1°C° 0.1 mm 4 mps 745 mmHg 92%
04:00 0°C° 0.1 mm 4 mps 745 mmHg 93%
05:00 -1°C° 0.1 mm 5 mps 745 mmHg 94%
06:00 0°C° 0 mm 5 mps 746 mmHg 86%
07:00 0°C° 0 mm 4 mps 746 mmHg 78%
08:00 +1°C° 0 mm 4 mps 747 mmHg 70%
09:00 +3°C° 0 mm 4 mps 747 mmHg 64%
10:00 +4°C° 0 mm 4 mps 747 mmHg 58%
11:00 +5°C° 0 mm 4 mps 747 mmHg 51%
12:00 +5°C° 0 mm 4 mps 747 mmHg 49%
13:00 +6°C° 0 mm 4 mps 747 mmHg 47%
14:00 +7°C° 0 mm 4 mps 747 mmHg 45%
15:00 +7°C° 0 mm 4 mps 746 mmHg 46%
16:00 +7°C° 0 mm 4 mps 746 mmHg 46%
17:00 +7°C° 0 mm 4 mps 746 mmHg 47%
18:00 +7°C° 0 mm 3 mps 746 mmHg 52%
19:00 +4°C° 0 mm 3 mps 746 mmHg 57%
20:00 +4°C° 0 mm 2 mps 746 mmHg 63%
21:00 +3°C° 0 mm 2 mps 745 mmHg 64%
22:00 +3°C° 0 mm 2 mps 745 mmHg 65%
23:00 +2°C° 0 mm 2 mps 745 mmHg 66%

26 April, Monday

Time Temperature Precipitation Wind Pressure Humidity
00:00 +2°C° 0 mm 2 mps 745 mmHg 67%
01:00 +1°C° 0 mm 2 mps 745 mmHg 69%
02:00 +1°C° 0 mm 2 mps 745 mmHg 70%
03:00 +1°C° 0 mm 2 mps 745 mmHg 71%
04:00 +1°C° 0 mm 1 mps 744 mmHg 71%
05:00 +1°C° 0 mm 1 mps 744 mmHg 72%
06:00 +3°C° 0 mm 1 mps 744 mmHg 67%
07:00 +4°C° 0 mm 2 mps 743 mmHg 62%
08:00 +5°C° 0 mm 2 mps 743 mmHg 57%
09:00 +7°C° 0 mm 3 mps 742 mmHg 54%
10:00 +9°C° 0 mm 3 mps 742 mmHg 52%
11:00 +10°C° 0 mm 4 mps 742 mmHg 50%
12:00 +10°C° 0.1 mm 5 mps 741 mmHg 52%
13:00 +10°C° 0.1 mm 5 mps 741 mmHg 53%
14:00 +10°C° 0.1 mm 6 mps 740 mmHg 55%
15:00 +10°C° 0.3 mm 5 mps 740 mmHg 59%
16:00 +9°C° 0.3 mm 5 mps 740 mmHg 63%
17:00 +9°C° 0.3 mm 5 mps 739 mmHg 68%
18:00 +7°C° 0.2 mm 4 mps 740 mmHg 72%
19:00 +7°C° 0.2 mm 3 mps 740 mmHg 77%
20:00 +5°C° 0.2 mm 2 mps 740 mmHg 81%
21:00 +4°C° 0 mm 2 mps 740 mmHg 84%
22:00 +5°C° 0 mm 1 mps 741 mmHg 86%
23:00 +4°C° 0 mm 1 mps 741 mmHg 88%
Show more